RH
68 63 58 52 48 46 45 40 38 35 31 27 22 20 19 19 20 20 20 21 22 23 25 28 29 29 30 31 34 37 41 46 48 49 47 45 42 38 33 29 26 25 25 24 23 23 23 23 22 23 23 22 23 23 23 25 27 33 35 33 30 26
73 73 69 63 53 47 46 41 39 35 30 26 22 21 20 20 21 22 23 23 25 28 31 34 35 38 42 45 47 50 52 55 56 57 58 58 58 56 52 45 37 29 26 26 25 24 24 25 24 23 23 24 23 23 26 31 32 31 36 38 35 30
73 73 74 73 59 48 46 42 39 34 29 26 23 22 22 24 27 28 29 28 32 36 38 42 46 50 55 57 56 57 59 58 57 58 59 61 62 63 64 63 60 49 35 27 26 27 28 29 28 26 25 24 23 27 30 33 32 29 35 40 37 31
72 71 72 71 58 49 46 42 39 34 30 27 26 27 26 30 33 35 36 37 43 49 53 56 59 60 60 59 56 55 55 55 54 54 55 54 55 54 55 59 64 66 58 41 29 32 43 47 40 34 32 30 29 32 30 29 29 29 34 39 38 34
65 62 60 59 54 50 47 44 40 39 44 44 39 34 31 34 40 45 48 52 58 63 66 66 64 63 60 54 51 52 53 54 53 52 50 49 49 47 45 49 53 61 68 63 51 45 48 51 46 40 41 39 37 35 31 31 33 33 36 38 38 36
59 57 56 56 54 52 51 48 43 47 57 55 44 40 44 51 58 60 61 63 65 66 65 65 66 65 60 51 50 53 52 51 51 53 53 51 52 49 46 50 55 59 64 69 72 67 57 51 45 41 42 40 37 36 37 38 36 36 36 36 37 38
59 58 58 58 58 58 57 57 54 56 60 55 53 59 69 73 71 67 64 64 64 63 60 61 62 60 59 57 56 56 53 53 53 55 55 55 57 56 54 55 57 62 66 68 72 76 74 69 62 56 54 50 46 41 39 41 41 40 38 37 38 38
59 58 60 62 64 65 65 67 66 67 69 68 72 78 79 75 69 65 63 62 62 61 58 58 53 53 58 57 55 54 55 57 54 53 53 55 56 55 56 55 53 56 63 68 69 72 76 78 77 77 75 72 69 58 48 45 46 45 44 43 41 40
59 61 65 68 71 72 73 76 76 78 81 81 82 80 75 69 66 64 63 64 63 60 57 55 50 52 54 50 50 51 54 56 51 49 49 49 49 48 49 49 48 48 50 57 64 65 68 73 75 78 81 82 82 77 70 65 59 55 53 53 54 56
64 68 70 72 75 78 80 81 82 83 83 82 80 75 71 68 66 65 65 65 61 58 53 50 49 50 50 48 49 49 50 50 47 47 46 45 44 43 44 44 45 47 47 51 57 57 59 65 66 69 72 76 80 81 81 78 75 75 71 71 73 73
70 72 74 77 80 81 82 82 84 84 82 81 77 71 69 68 67 66 64 62 59 55 48 45 47 48 50 49 46 46 48 47 46 47 49 49 47 45 45 46 46 47 48 49 51 52 54 58 59 63 64 67 73 75 80 80 81 89 91 93 90 80
71 75 80 84 84 83 83 83 81 77 76 77 73 68 69 68 65 63 60 59 56 51 44 42 44 43 47 46 43 46 48 45 46 47 49 50 50 49 48 49 48 47 48 46 46 49 53 55 54 59 63 66 68 69 80 80 74 79 84 86 81 75
75 80 84 86 85 83 83 79 72 66 66 71 70 65 65 63 59 56 56 54 50 47 45 45 43 42 45 44 43 45 44 42 45 46 47 48 49 52 53 54 51 49 49 47 47 48 53 55 52 53 57 59 59 57 65 65 60 60 62 64 62 69
80 83 86 86 84 81 77 73 68 63 65 69 66 62 60 56 53 52 50 48 46 47 47 46 46 47 48 45 44 45 43 42 45 47 48 48 49 54 55 54 52 50 50 50 50 47 50 55 53 54 54 54 54 52 54 55 56 57 57 62 62 66
84 82 85 84 80 79 75 72 71 65 65 64 58 58 57 53 55 55 49 46 48 50 50 51 51 49 47 44 43 43 45 45 46 47 48 47 49 56 55 53 55 53 52 52 51 51 53 55 54 56 57 57 58 57 58 58 58 60 58 60 61 64
82 78 82 78 72 73 72 74 74 66 60 57 55 57 54 52 56 56 52 50 53 55 55 52 48 43 39 40 41 41 45 48 48 49 50 47 48 56 56 53 57 56 56 53 54 59 56 52 52 54 56 59 60 59 57 57 59 61 54 51 58 61
77 74 78 76 71 69 68 69 68 62 58 56 57 58 56 55 56 56 56 55 53 52 50 46 42 40 39 41 43 44 46 47 49 54 56 51 47 53 56 58 61 58 57 54 57 65 61 58 58 53 52 55 56 55 53 51 52 55 52 50 56 52
73 75 77 75 73 70 67 64 62 60 59 58 56 56 57 58 57 58 59 54 48 45 44 43 42 41 40 45 50 50 47 44 46 48 48 47 45 47 54 63 66 59 56 56 58 66 66 65 63 56 54 55 54 51 49 48 48 50 50 49 50 47
77 80 78 72 68 68 66 64 66 63 57 56 54 53 56 56 56 58 57 51 46 46 45 41 38 36 37 45 52 51 46 40 41 40 36 40 42 42 47 54 59 56 57 61 58 61 65 61 57 56 56 57 54 48 46 46 47 47 46 47 47 47
83 78 73 68 64 65 67 64 64 63 59 61 59 57 56 53 53 52 51 49 46 44 39 33 31 31 34 40 41 40 35 31 34 37 38 43 45 46 49 51 55 56 55 57 57 60 66 58 53 55 54 55 51 44 47 49 50 49 47 50 48 45
76 71 69 67 62 64 69 65 61 63 66 66 59 53 47 41 41 42 42 40 37 34 29 28 30 29 31 31 29 29 30 32 37 41 44 48 49 50 52 51 54 56 49 48 54 57 58 51 47 52 52 53 50 44 48 50 49 53 53 50 44 42
66 66 69 69 66 66 69 66 64 66 64 55 46 39 34 29 30 33 33 31 29 28 28 29 29 26 26 24 24 26 28 33 35 35 38 42 45 49 51 48 49 56 54 51 54 50 48 47 44 46 47 48 51 50 52 50 46 49 52 48 41 41
71 70 70 70 71 69 68 65 66 63 50 39 33 29 28 26 26 28 31 32 31 30 29 28 26 23 22 22 23 25 24 25 25 26 30 32 34 38 40 37 35 43 47 50 56 50 41 43 44 46 51 53 52 49 52 58 55 47 44 43 41 41
77 74 71 72 76 75 70 63 55 46 35 29 26 23 25 26 27 29 31 32 30 28 26 24 23 21 22 24 24 24 22 22 23 25 28 29 30 30 29 28 26 28 29 30 39 42 39 44 46 45 50 55 54 49 50 59 58 47 42 42 41 40
75 74 75 76 79 80 72 53 36 29 24 23 23 24 27 27 28 29 28 27 23 21 20 19 19 21 22 24 23 22 22 21 23 24 25 27 29 29 28 27 25 24 24 22 23 27 34 46 49 44 43 45 49 52 52 54 53 49 48 47 44 44
79 79 81 81 80 80 64 36 22 21 21 23 25 27 26 26 26 25 22 21 19 18 18 18 19 20 20 20 19 19 19 20 22 24 26 28 29 30 29 27 26 24 23 23 22 21 25 33 36 37 38 36 40 47 53 55 54 53 53 52 51 51
88 84 83 83 78 67 44 23 19 21 23 25 25 25 24 23 22 21 20 18 18 18 18 18 18 18 18 18 18 17 17 18 19 21 25 27 29 29 27 26 25 24 23 22 23 22 22 23 24 27 29 28 32 40 47 53 56 58 54 52 52 53
87 80 76 74 65 49 31 22 22 21 22 23 22 23 24 23 21 20 18 17 18 18 18 18 18 18 18 17 17 17 17 17 18 19 21 23 25 25 25 25 24 24 24 23 24 24 23 23 23 24 25 25 27 29 33 40 48 55 55 51 49 51
79 72 67 62 53 41 28 21 22 22 22 22 22 22 23 23 23 21 19 18 18 18 18 18 18 18 17 17 18 17 17 17 17 19 20 21 22 23 23 23 23 23 23 23 24 24 25 25 26 26 26 27 28 28 29 31 35 40 45 46 44 45
67 63 59 51 42 35 26 20 21 21 21 23 24 24 24 25 25 23 22 21 19 19 18 18 18 18 18 18 18 17 17 18 18 19 20 21 21 22 22 21 21 22 23 24 24 25 25 26 27 28 28 29 30 30 31 31 32 32 33 35 34 36
61 60 53 40 32 29 26 23 22 21 20 22 23 24 24 25 25 25 25 23 22 20 19 19 19 19 19 19 18 18 18 18 19 19 20 21 21 21 22 22 22 23 23 24 25 25 26 27 28 29 30 31 32 32 32 32 33 33 33 34 33 32
60 59 53 38 26 24 25 24 23 22 22 22 22 23 23 23 24 26 27 27 25 23 21 20 20 20 20 20 19 19 19 19 20 21 21 22 23 23 23 23 24 24 25 25 26 27 28 28 29 29 30 31 33 34 35 35 35 35 35 35 34 34
50 49 47 38 26 23 24 23 23 23 23 24 23 23 22 22 23 25 29 31 29 26 24 23 22 22 22 22 21 21 21 21 21 22 23 23 24 24 24 25 25 26 26 27 28 27 27 27 27 28 29 30 31 32 34 35 36 36 37 37 36 36
44 39 35 30 24 22 22 23 27 29 29 30 28 28 27 27 27 28 31 34 33 30 27 26 25 24 24 24 24 23 23 23 23 23 23 24 25 25 25 26 27 28 28 28 27 26 25 24 23 23 22 22 23 23 24 25 26 27 29 30 31 32
54 53 48 43 40 38 37 40 46 49 49 48 46 45 45 43 41 39 39 40 39 33 29 28 28 26 27 26 26 26 25 24 24 24 25 25 26 26 28 29 30 29 28 26 24 21 19 16 14 12 11 10 9 9 9 9 9 10 11 12 13 15
59 58 56 54 53 52 51 53 56 58 59 59 60 59 59 59 57 54 52 49 43 35 31 30 30 29 28 28 27 27 25 25 24 25 26 26 27 29 30 30 28 26 23 19 15 12 9 6 4 3 2 2 2 2 2 1 1 2 1 2 2 2
57 53 53 51 48 44 43 43 45 48 51 54 57 58 59 59 60 60 58 53 44 36 33 32 31 30 30 29 28 27 26 26 26 26 27 28 30 30 29 26 21 16 12 8 5 3 2 2 1 1 1 1 1 1 1 1 1 1 1 1 1 1
Wind_Speed
13 13 14 14 14 13 13 12 10 10 9 9 9 8 7 6 5 5 5 6 6 6 7 7 7 7 6 6 6 6 6 6 6 6 6 6 5 5 5 6 6 6 6 7 7 6 7 7 7 8 8 9 9 10 10 11 11 11 12 14 14 13
14 14 14 14 14 13 13 12 11 10 10 10 9 8 7 6 6 5 5 6 6 7 7 7 7 6 6 6 6 6 6 6 6 7 7 7 7 7 7 7 8 8 8 9 9 9 9 9 10 10 10 11 11 12 13 12 12 12 13 16 15 15
15 15 14 13 13 14 13 12 11 11 10 9 8 7 6 5 5 5 5 6 6 6 6 6 6 6 6 6 7 6 6 6 7 7 8 8 8 9 8 9 9 9 10 10 11 11 12 12 11 12 13 13 14 14 14 14 14 14 15 17 17 17
16 16 15 13 14 14 13 12 11 11 10 8 7 5 5 5 4 4 5 5 6 6 6 6 6 6 6 7 6 5 6 6 7 7 8 9 10 10 9 9 10 10 11 11 13 13 13 13 12 13 15 15 16 16 16 16 16 16 17 19 19 19
16 16 15 14 13 12 12 11 11 10 8 6 5 4 4 4 4 4 4 5 5 6 7 6 5 5 4 5 6 5 5 5 6 6 8 9 9 11 10 9 9 10 11 11 13 12 13 14 13 14 15 16 17 17 18 18 18 18 19 21 21 21
16 16 15 15 14 12 12 10 9 7 5 4 3 3 4 4 3 3 3 4 5 5 8 8 8 7 5 5 6 6 6 6 7 8 9 10 10 11 11 10 10 9 10 11 11 11 12 14 15 16 17 18 18 18 19 19 20 20 21 23 22 23
16 16 16 15 14 12 11 8 7 5 4 4 4 4 3 2 1 2 3 4 4 4 6 9 11 11 10 10 10 10 11 11 11 11 11 11 11 11 11 11 12 11 9 9 10 11 12 13 15 17 18 19 19 19 20 20 21 22 23 24 24 24
15 16 15 14 13 11 9 7 6 6 5 5 4 4 2 1 0 2 3 3 4 5 6 8 9 10 10 10 11 11 11 11 11 11 11 11 11 11 12 11 12 12 11 9 9 10 11 12 14 16 18 19 19 19 20 21 21 22 22 25 26 25
15 15 14 13 12 10 9 8 8 7 7 6 4 4 3 2 0 1 2 3 3 5 6 7 7 7 8 9 9 9 9 10 10 11 11 11 11 12 11 11 11 12 12 11 10 10 10 12 13 14 16 18 18 18 18 20 20 21 22 24 27 25
15 14 14 13 11 11 10 9 9 8 7 7 6 5 4 2 0 1 2 3 3 5 5 5 6 6 7 7 8 8 8 9 10 10 11 11 12 12 11 11 11 11 12 11 12 12 12 12 12 13 14 15 16 16 17 18 18 20 21 23 26 26
15 14 13 12 12 11 10 10 9 8 7 7 7 6 4 2 1 1 2 3 3 4 3 3 4 5 6 6 6 7 8 8 9 10 11 11 11 12 12 11 11 10 11 10 11 12 12 12 12 13 14 13 14 14 15 17 17 18 20 21 24 25
15 14 13 13 12 12 11 10 9 8 8 7 6 6 4 2 2 2 2 3 2 2 2 2 3 4 5 5 5 6 7 8 9 10 11 11 11 11 11 11 11 11 11 10 10 11 11 11 11 12 13 14 15 15 15 16 18 18 19 21 22 23
15 14 14 13 13 12 11 10 9 9 8 6 6 5 3 2 2 2 2 1 1 1 1 2 3 4 5 5 5 5 7 8 9 9 10 11 11 11 10 10 11 11 11 11 11 11 11 11 11 11 12 13 15 15 15 16 18 19 19 21 22 20
14 14 13 13 13 12 11 10 9 9 8 6 5 3 2 2 2 2 2 2 1 1 1 1 2 4 5 5 6 6 7 8 9 9 9 10 11 10 10 10 10 11 11 12 13 13 12 12 12 11 12 14 15 15 15 15 16 18 18 19 21 20
14 14 13 14 14 12 11 11 10 9 7 6 5 3 3 3 2 3 3 2 2 1 2 2 3 5 6 6 7 7 8 8 8 9 10 11 12 11 10 10 10 11 11 12 13 14 13 13 13 13 14 15 16 16 16 16 16 17 18 19 19 20
15 15 14 14 14 11 10 10 9 8 6 5 5 4 4 4 4 3 3 2 2 2 2 3 4 6 7 7 8 8 8 8 8 9 10 11 13 13 12 12 12 11 12 13 14 14 14 14 13 13 15 15 16 16 16 17 17 18 18 20 20 20
15 16 15 14 13 12 12 11 9 7 7 6 5 5 5 5 4 3 3 2 1 1 2 3 5 7 8 8 8 9 9 10 10 10 11 12 13 15 15 15 14 13 12 13 15 16 16 16 15 14 15 15 15 15 16 16 17 18 18 19 20 21
15 15 14 15 15 14 14 11 9 7 7 7 6 6 5 5 4 3 3 2 1 1 3 4 6 7 8 9 9 10 11 12 13 12 13 14 14 15 16 16 17 17 14 13 15 16 16 16 16 15 15 14 14 15 16 17 18 17 18 19 19 21
16 15 15 15 15 13 11 10 9 8 8 7 6 5 5 4 4 3 3 3 2 3 5 6 6 7 8 9 10 11 11 12 14 14 14 15 15 16 16 16 17 18 16 15 15 16 15 15 16 16 15 14 14 15 17 18 18 17 18 19 18 18
15 16 16 15 15 12 9 8 9 8 8 7 6 5 5 4 4 3 3 3 4 5 5 6 7 7 8 9 11 12 12 13 14 15 15 16 16 16 17 17 17 18 17 15 15 15 15 15 15 16 16 15 14 15 16 17 17 17 16 16 16 17
16 16 17 16 14 12 10 9 8 7 7 7 6 5 5 4 3 2 3 4 5 6 6 7 8 9 9 10 12 12 13 14 15 15 15 16 16 16 16 17 17 17 17 16 15 14 14 14 15 15 16 16 16 16 16 17 17 17 15 15 17 19
15 16 16 15 12 10 10 9 8 8 7 7 6 5 3 2 1 2 4 5 6 7 8 8 9 10 10 11 13 14 14 15 15 15 15 16 16 15 15 15 15 16 16 15 15 14 13 14 15 15 15 16 17 18 18 19 17 15 16 17 18 18
15 15 15 13 9 7 8 9 8 8 7 6 5 3 2 2 2 3 5 6 7 8 9 9 10 11 11 12 14 15 15 16 16 16 15 15 16 15 14 14 14 15 15 15 15 16 15 15 16 15 14 15 16 16 17 19 18 17 18 18 17 17
15 15 13 11 9 7 7 8 7 6 6 5 4 3 3 3 4 4 5 7 8 8 9 10 10 11 12 13 14 15 15 15 15 15 14 15 15 15 15 14 15 16 16 16 16 17 17 16 16 16 15 15 15 14 15 17 19 18 18 19 18 18
13 11 10 7 7 7 7 8 7 6 6 5 4 3 4 5 5 6 6 7 8 8 9 10 10 11 12 13 14 15 15 15 15 15 15 15 15 16 16 16 16 16 17 17 17 18 18 17 17 17 17 18 17 15 15 17 19 18 18 19 20 20
10 8 7 5 5 6 7 8 8 7 6 5 4 4 5 6 6 7 7 8 8 9 9 10 11 11 12 13 13 14 14 15 15 15 15 15 16 17 17 18 18 18 18 18 18 19 19 19 19 18 18 18 19 18 18 19 19 19 18 18 19 20
8 7 6 5 5 6 7 8 7 6 6 5 5 5 6 7 8 9 9 9 9 9 10 11 12 12 13 13 14 14 15 15 15 15 15 15 16 16 17 18 19 19 19 19 19 19 20 20 21 20 19 19 20 20 21 21 21 22 22 20 18 19
10 10 9 9 8 8 9 9 8 8 7 7 7 6 7 8 10 11 11 11 10 11 12 12 13 13 14 15 15 15 15 15 15 15 15 16 16 17 17 18 18 19 20 21 21 21 22 22 22 22 22 22 22 22 23 23 23 24 25 24 21 20
12 11 11 11 11 11 11 11 10 10 9 9 9 9 9 10 11 12 13 13 13 13 14 14 15 15 15 16 16 17 16 16 16 16 16 17 17 18 18 18 19 20 21 22 23 23 24 24 24 25 25 25 24 25 25 25 25 26 26 27 26 24
13 12 12 12 12 12 13 13 12 12 11 11 11 12 12 12 13 13 14 14 15 15 16 16 16 17 17 18 18 18 18 18 17 17 18 18 19 19 19 20 20 21 22 23 25 26 26 26 27 28 28 28 27 27 27 27 27 28 28 29 30 29
13 12 13 13 13 14 14 15 14 14 14 14 15 15 15 15 15 15 15 15 16 17 18 18 18 19 19 19 19 19 19 19 19 19 19 19 20 20 20 21 22 23 24 25 27 28 29 30 30 31 31 31 31 31 31 30 29 29 29 30 32 32
15 14 14 14 15 16 16 16 17 17 17 18 18 18 18 18 18 17 17 17 18 19 19 20 20 20 20 20 20 20 20 20 20 20 21 21 21 22 22 23 24 25 26 28 30 31 32 32 32 32 32 32 32 32 32 32 31 31 30 31 33 33
15 15 15 16 16 17 17 18 19 20 20 21 21 21 21 21 21 20 20 19 19 20 21 21 22 22 21 21 21 21 21 21 21 22 22 22 23 23 24 25 26 28 29 31 32 33 34 33 32 32 31 31 30 30 30 31 31 31 31 31 32 34
14 15 16 17 18 19 20 21 22 23 23 23 24 24 24 24 23 23 23 22 21 21 22 22 22 22 21 21 21 21 22 22 22 23 23 23 24 24 25 27 29 30 31 32 33 33 33 32 32 31 30 30 30 30 30 30 30 31 31 32 32 34
15 16 17 18 20 22 23 24 24 25 25 26 26 26 26 26 26 26 25 24 23 22 23 22 22 21 20 21 21 22 22 22 23 23 24 24 25 26 28 29 30 31 31 32 32 32 31 31 31 30 30 30 30 30 30 30 31 31 32 32 33 34
16 17 18 19 21 23 25 26 27 27 28 28 27 27 27 27 27 27 26 25 23 23 23 22 21 20 20 20 21 22 22 23 23 24 25 26 27 28 30 30 30 30 30 30 30 30 29 29 29 28 28 28 28 28 29 29 29 30 30 31 32 33
17 17 18 19 20 21 23 25 26 28 29 29 28 28 27 26 26 25 25 24 23 22 21 20 19 19 20 20 21 22 22 23 23 24 26 27 28 29 29 29 29 28 28 27 27 26 26 26 26 26 26 26 27 27 28 28 29 29 30 30 31 32
Wind_Direction
211 213 215 215 215 216 218 219 218 219 218 214 216 221 228 236 246 260 274 285 295 305 313 315 315 315 317 319 320 322 321 321 320 320 321 316 314 306 297 290 284 278 271 266 259 254 249 245 242 240 246 249 250 253 255 258 263 268 274 275 273 275
209 212 214 215 213 213 217 216 215 218 217 216 218 223 229 238 251 263 275 287 299 308 313 310 310 309 314 317 313 317 317 318 319 319 320 318 316 310 303 294 284 275 268 267 261 259 257 253 252 253 254 255 256 257 259 260 263 268 273 275 274 275
208 211 212 213 211 211 215 214 215 217 217 220 221 228 238 247 261 275 287 299 307 309 308 302 302 307 316 316 310 312 313 313 315 319 321 320 317 310 305 299 292 282 271 266 262 261 260 255 254 258 258 258 259 260 264 265 266 269 272 274 277 279
206 207 208 210 212 210 212 214 216 217 218 223 225 236 252 264 275 290 301 307 309 308 301 299 306 315 323 320 315 315 316 320 322 326 327 324 321 316 311 303 296 290 283 272 266 264 265 264 258 260 261 262 264 265 268 269 270 272 273 276 280 283
205 207 209 211 215 211 211 215 219 223 221 220 228 240 251 266 280 294 305 309 311 313 304 303 315 319 329 327 324 327 332 338 336 340 337 332 330 325 323 317 306 294 288 281 277 273 271 274 273 270 269 268 269 270 272 272 273 275 276 279 283 285
205 207 209 211 214 213 214 215 220 228 227 223 229 235 244 254 272 298 316 320 322 326 318 323 331 330 344 346 342 349 352 354 355 357 349 342 340 333 333 333 330 316 296 286 284 282 274 275 277 276 275 273 272 273 274 275 276 276 278 280 283 285
205 206 208 210 212 212 214 215 216 223 221 222 224 225 236 241 269 335 342 337 332 340 335 335 338 341 353 357 358 1 358 359 1 360 351 346 345 341 342 341 340 339 326 303 290 286 282 279 277 278 277 276 275 274 274 275 276 276 278 280 280 282
205 207 209 210 211 211 210 209 207 209 206 212 221 215 206 203 17 4 357 353 343 343 341 340 344 349 358 1 359 360 357 358 358 356 352 348 348 346 348 348 346 345 343 332 312 298 291 287 285 285 284 283 280 275 275 275 276 278 279 281 281 280
207 208 209 209 209 209 207 204 202 203 197 195 201 193 179 165 80 0 352 353 344 340 340 348 1 4 4 3 359 357 356 356 354 355 354 349 348 346 346 349 350 348 348 345 335 323 310 301 297 294 292 292 289 284 280 277 277 280 280 280 281 281
209 208 210 208 206 206 204 201 200 198 192 188 187 183 176 172 245 329 344 347 339 342 347 358 9 7 1 358 356 357 355 353 353 353 351 346 344 341 341 344 347 348 347 345 337 331 327 317 310 304 299 298 296 294 290 284 281 283 282 280 281 282
210 209 210 206 204 205 202 201 197 192 189 187 183 179 177 194 269 316 327 332 336 341 353 1 359 354 348 345 350 355 352 348 347 345 342 339 338 335 335 337 339 342 342 342 334 328 327 321 316 312 306 302 299 300 300 295 292 288 285 283 283 287
210 207 207 204 203 203 200 198 194 196 197 187 186 186 176 194 249 289 305 315 334 342 350 346 338 340 338 338 349 354 349 345 340 336 334 333 333 331 330 330 331 334 335 335 331 325 320 317 315 312 309 307 305 306 303 300 300 295 289 287 287 291
210 207 206 204 204 201 199 198 195 201 199 183 187 190 174 191 241 270 278 273 316 329 325 330 336 341 338 339 349 352 346 343 336 332 330 330 330 328 326 325 325 326 326 327 326 324 319 315 313 309 306 303 301 302 300 300 302 299 298 296 296 296
209 208 206 206 207 201 197 196 194 198 192 182 188 185 185 203 224 221 189 171 189 232 267 313 338 336 328 327 330 332 335 336 333 330 329 328 325 320 317 317 318 318 319 321 320 321 321 318 317 312 307 302 300 301 299 299 299 299 301 299 300 300
209 208 205 207 211 201 194 193 188 189 185 185 193 181 177 177 174 183 183 183 205 250 277 302 322 322 319 318 317 319 324 328 328 327 326 326 321 315 315 313 311 310 310 313 314 314 317 319 322 320 312 306 304 303 303 303 300 299 302 302 302 302
208 206 204 208 212 201 195 193 182 179 181 187 188 173 168 171 180 189 197 211 239 276 290 306 316 319 321 321 320 318 318 320 323 321 319 322 322 319 317 313 309 311 311 312 311 307 309 314 318 320 314 309 308 307 309 311 308 306 309 311 309 307
207 208 206 205 205 198 194 186 173 172 179 182 175 166 170 181 192 196 205 229 257 281 301 317 321 321 323 324 321 317 317 320 320 319 320 323 325 321 319 319 316 314 313 312 310 307 309 312 313 316 315 310 309 310 313 316 315 314 315 314 310 310
210 211 211 204 199 196 187 172 164 171 175 172 171 170 173 184 197 202 213 239 255 289 310 317 320 321 323 321 318 319 323 325 322 322 325 323 321 320 318 320 317 313 316 317 312 310 312 314 312 314 313 309 310 312 314 315 315 315 314 314 312 313
210 209 212 207 198 191 176 158 159 170 172 168 170 172 175 186 198 208 220 242 267 293 304 313 319 320 321 318 317 322 324 323 322 324 325 322 321 320 317 317 315 316 322 321 314 312 313 313 312 314 313 313 315 315 314 314 312 315 316 316 315 314
212 208 208 204 195 182 166 162 165 171 171 167 169 171 180 190 195 211 230 252 275 290 300 313 318 317 317 313 313 316 318 319 321 322 322 321 323 321 318 318 318 318 321 319 314 312 312 313 315 318 318 317 319 317 313 311 311 313 317 317 318 317
213 207 203 200 193 173 160 170 178 178 174 169 171 174 181 188 192 224 258 276 291 301 309 315 314 312 310 308 310 313 317 320 319 320 320 320 322 321 319 320 319 318 319 320 318 316 317 319 323 324 322 321 320 316 311 310 311 312 314 318 320 319
208 202 198 196 190 168 159 175 184 178 171 167 170 174 185 202 235 272 292 298 303 306 306 305 302 303 303 304 309 312 316 318 318 321 321 321 323 323 321 320 320 318 319 323 321 322 326 325 326 326 323 322 319 317 316 314 315 319 321 322 322 318
204 201 197 187 180 174 169 173 174 168 167 171 176 183 211 256 284 288 295 295 296 296 294 294 294 296 300 305 309 312 314 316 318 322 323 324 325 325 325 325 326 323 324 326 321 323 328 325 323 323 321 318 316 318 318 315 318 324 323 320 319 315
203 201 197 181 172 183 183 176 176 175 176 185 194 211 242 264 281 283 284 284 284 286 285 286 289 293 300 305 309 311 313 317 320 323 323 324 324 325 327 328 329 326 326 328 322 321 326 324 319 318 318 315 314 316 314 310 313 318 317 315 316 314
204 202 201 190 178 189 198 193 189 187 189 197 212 236 260 269 278 280 280 282 283 283 284 286 289 294 298 301 305 309 314 318 321 322 323 323 323 324 325 326 327 325 325 326 324 322 322 321 319 318 319 316 313 312 309 305 306 309 310 312 313 312
206 205 205 204 201 198 199 196 189 191 201 215 230 246 261 267 273 277 278 280 282 284 287 289 291 293 295 298 303 307 312 316 318 320 321 322 322 322 324 324 324 324 324 324 323 322 320 319 319 319 319 317 314 312 308 306 306 305 305 307 309 309
223 229 228 225 226 209 202 203 202 209 220 230 238 248 260 265 268 272 276 278 282 285 285 287 288 290 293 296 300 304 308 311 313 315 317 318 319 319 321 322 322 323 324 323 322 321 318 317 316 316 315 313 312 311 308 308 307 304 303 304 303 301
238 247 248 245 240 227 221 221 221 227 232 240 247 253 260 265 267 268 271 275 280 284 283 284 286 288 292 294 298 302 304 306 308 311 313 315 315 316 317 318 318 319 319 320 319 318 316 315 313 312 311 310 308 306 306 306 305 304 304 304 301 297
246 251 253 249 241 233 231 229 230 237 241 248 256 260 264 266 269 270 271 273 276 280 282 283 285 288 291 294 297 299 301 302 304 308 310 311 312 312 313 313 313 315 316 316 316 315 314 313 312 310 309 308 306 305 304 302 300 300 301 302 301 298
249 254 253 247 239 236 239 238 240 246 248 253 258 263 267 269 272 274 274 274 273 275 279 281 283 285 288 290 293 295 296 298 300 302 304 305 306 307 308 310 311 312 313 313 313 313 312 312 311 310 309 307 305 304 302 300 299 299 299 298 297 297
251 253 250 244 239 239 244 248 251 254 257 259 261 265 269 272 274 276 277 276 273 273 276 278 281 282 285 288 290 292 293 294 295 297 298 299 302 304 306 308 309 309 309 310 310 310 310 310 309 308 308 307 306 305 303 301 300 299 298 296 295 296
250 250 247 242 240 241 246 252 257 260 262 262 264 267 271 273 275 277 278 278 275 273 274 275 278 280 283 287 289 291 291 292 293 294 296 299 302 304 306 306 307 307 307 307 307 308 309 309 308 308 307 306 306 305 304 303 302 300 298 297 296 296
255 252 247 243 242 244 248 252 255 258 260 262 264 266 269 271 273 275 277 279 276 273 272 273 276 278 283 287 289 291 292 292 293 295 297 300 301 303 304 304 305 305 305 306 307 308 309 309 309 308 308 307 306 305 305 304 303 301 300 298 297 296
258 257 250 245 245 245 248 251 255 258 259 261 263 264 267 269 271 273 275 278 277 273 271 273 276 280 284 287 291 292 293 293 293 295 297 299 300 301 303 304 304 305 306 307 309 309 310 310 310 310 310 309 309 308 307 306 305 304 302 301 299 297
248 252 249 248 249 249 251 254 257 260 261 262 264 265 267 268 269 271 273 276 277 274 272 273 277 281 285 289 293 293 293 293 294 295 297 299 301 304 305 306 307 308 309 309 310 311 311 311 311 312 312 312 311 310 310 309 308 307 305 304 303 301
250 252 254 255 256 256 257 258 260 261 262 263 264 266 268 268 269 270 272 275 276 273 271 274 278 282 286 290 293 294 294 294 295 297 299 301 304 306 307 308 309 310 311 312 312 312 313 314 315 316 317 317 317 316 316 315 314 312 311 309 307 305
259 260 262 264 265 266 266 264 263 262 262 262 262 263 265 267 268 269 271 272 272 270 270 274 278 283 287 291 293 294 295 296 297 298 301 304 306 308 309 311 312 313 314 315 316 317 319 320 322 323 323 323 322 322 321 320 318 317 315 314 312 310